Time,TemperatureF,DewpointF,PressureIn,WindDirection,WindDirectionDegrees,WindSpeedMPH,WindSpeedGustMPH,Humidity,HourlyPrecipIn,Conditions,Clouds,dailyrainin,SoftwareType,DateUTC
2013-02-06 00:01:00,32.0,27.0,30.05,NW,321,1.0,-999.0,81,-99.99,,,-99.99,,2013-02-06 06:01:00,
2013-02-06 00:11:00,32.0,27.0,30.05,NW,321,1.0,-999.0,81,-99.99,,,-99.99,,2013-02-06 06:11:00,
2013-02-06 00:21:00,31.0,26.0,30.06,WNW,284,2.0,-999.0,82,-99.99,,,-99.99,,2013-02-06 06:21:00,
2013-02-06 00:32:00,31.0,26.0,30.07,WNW,284,3.0,-999.0,82,-99.99,,,-99.99,,2013-02-06 06:32:00,
2013-02-06 00:42:00,31.0,26.0,30.07,WNW,284,3.0,-999.0,82,-99.99,,,-99.99,,2013-02-06 06:42:00,
2013-02-06 00:51:00,31.0,26.0,30.07,West,268,2.0,-999.0,83,-99.99,,,-99.99,,2013-02-06 06:51:00,
2013-02-06 01:01:00,30.0,26.0,30.07,WSW,247,3.0,-999.0,84,-99.99,,,-99.99,,2013-02-06 07:01:00,
2013-02-06 01:11:00,30.0,26.0,30.07,WSW,247,3.0,-999.0,84,-99.99,,,-99.99,,2013-02-06 07:11:00,
2013-02-06 01:21:00,30.0,26.0,30.07,WSW,247,1.0,-999.0,85,-99.99,,,-99.99,,2013-02-06 07:21:00,
2013-02-06 01:32:00,30.0,26.0,30.07,WSW,248,2.0,-999.0,85,-99.99,,,-99.99,,2013-02-06 07:32:00,
2013-02-06 01:42:00,30.0,26.0,30.07,WSW,248,2.0,-999.0,85,-99.99,,,-99.99,,2013-02-06 07:42:00,
2013-02-06 01:51:00,30.0,26.0,30.08,WSW,248,2.0,-999.0,85,-99.99,,,-99.99,,2013-02-06 07:51:00,
2013-02-06 02:01:00,29.0,25.0,30.09,WSW,248,2.0,-999.0,86,-99.99,,,-99.99,,2013-02-06 08:01:00,
2013-02-06 02:11:00,29.0,25.0,30.09,WSW,248,2.0,-999.0,86,-99.99,,,-99.99,,2013-02-06 08:11:00,
2013-02-06 02:21:00,29.0,25.0,30.10,WSW,258,3.0,-999.0,86,-99.99,,,-99.99,,2013-02-06 08:21:00,
2013-02-06 02:31:00,29.0,25.0,30.10,WSW,258,3.0,-999.0,86,-99.99,,,-99.99,,2013-02-06 08:31:00,
2013-02-06 02:42:00,29.0,25.0,30.10,WSW,258,3.0,-999.0,86,-99.99,,,-99.99,,2013-02-06 08:42:00,
2013-02-06 02:53:00,30.0,26.0,30.11,WSW,256,3.0,-999.0,86,-99.99,,,-99.99,,2013-02-06 08:53:00,
2013-02-06 03:01:00,29.0,25.0,30.11,West,266,2.0,-999.0,86,-99.99,,,-99.99,,2013-02-06 09:01:00,
2013-02-06 03:11:00,29.0,25.0,30.11,West,266,2.0,-999.0,86,-99.99,,,-99.99,,2013-02-06 09:11:00,
2013-02-06 03:21:00,29.0,25.0,30.11,West,266,3.0,-999.0,86,-99.99,,,-99.99,,2013-02-06 09:21:00,
2013-02-06 03:31:00,29.0,26.0,30.11,West,266,1.0,-999.0,87,-99.99,,,-99.99,,2013-02-06 09:31:00,
2013-02-06 03:41:00,29.0,26.0,30.11,West,266,1.0,-999.0,87,-99.99,,,-99.99,,2013-02-06 09:41:00,
2013-02-06 03:51:00,28.0,25.0,30.11,West,266,0.0,-999.0,87,-99.99,,,-99.99,,2013-02-06 09:51:00,
2013-02-06 04:01:00,28.0,25.0,30.10,West,266,0.0,-999.0,88,-99.99,,,-99.99,,2013-02-06 10:01:00,
2013-02-06 04:11:00,28.0,25.0,30.10,West,266,0.0,-999.0,88,-99.99,,,-99.99,,2013-02-06 10:11:00,
2013-02-06 04:21:00,28.0,25.0,30.10,West,266,0.0,-999.0,88,-99.99,,,-99.99,,2013-02-06 10:21:00,
2013-02-06 04:31:00,28.0,25.0,30.10,West,266,0.0,-999.0,89,-99.99,,,-99.99,,2013-02-06 10:31:00,
2013-02-06 04:42:00,28.0,25.0,30.10,West,266,0.0,-999.0,89,-99.99,,,-99.99,,2013-02-06 10:42:00,
2013-02-06 04:51:00,28.0,25.0,30.09,West,266,0.0,-999.0,89,-99.99,,,-99.99,,2013-02-06 10:51:00,
2013-02-06 05:01:00,27.0,24.0,30.11,West,266,0.0,-999.0,89,-99.99,,,-99.99,,2013-02-06 11:01:00,
2013-02-06 05:11:00,27.0,24.0,30.11,West,266,0.0,-999.0,89,-99.99,,,-99.99,,2013-02-06 11:11:00,
2013-02-06 05:22:00,27.0,24.0,30.11,West,266,0.0,-999.0,90,-99.99,,,-99.99,,2013-02-06 11:22:00,
2013-02-06 05:32:00,27.0,24.0,30.11,West,266,0.0,-999.0,90,-99.99,,,-99.99,,2013-02-06 11:32:00,
2013-02-06 05:42:00,27.0,24.0,30.11,West,266,0.0,-999.0,90,-99.99,,,-99.99,,2013-02-06 11:42:00,
2013-02-06 05:52:00,27.0,25.0,30.12,West,266,1.0,-999.0,91,-99.99,,,-99.99,,2013-02-06 11:52:00,
2013-02-06 06:02:00,27.0,25.0,30.13,West,266,1.0,-999.0,91,-99.99,,,-99.99,,2013-02-06 12:02:00,
2013-02-06 06:12:00,27.0,25.0,30.13,West,266,1.0,-999.0,91,-99.99,,,-99.99,,2013-02-06 12:12:00,
2013-02-06 06:22:00,26.0,24.0,30.12,West,266,0.0,-999.0,91,-99.99,,,-99.99,,2013-02-06 12:22:00,
2013-02-06 06:32:00,26.0,24.0,30.13,West,266,1.0,-999.0,91,-99.99,,,-99.99,,2013-02-06 12:32:00,
2013-02-06 06:42:00,26.0,24.0,30.13,West,266,1.0,-999.0,91,-99.99,,,-99.99,,2013-02-06 12:42:00,
2013-02-06 06:52:00,26.0,24.0,30.14,West,266,1.0,-999.0,92,-99.99,,,-99.99,,2013-02-06 12:52:00,
2013-02-06 07:01:00,26.0,24.0,30.14,West,266,0.0,-999.0,92,-99.99,,,-99.99,,2013-02-06 13:01:00,
2013-02-06 07:12:00,26.0,24.0,30.14,West,266,0.0,-999.0,92,-99.99,,,-99.99,,2013-02-06 13:12:00,
2013-02-06 07:22:00,26.0,24.0,30.14,West,266,0.0,-999.0,92,-99.99,,,-99.99,,2013-02-06 13:22:00,
2013-02-06 07:32:00,26.0,24.0,30.15,West,266,0.0,-999.0,92,-99.99,,,-99.99,,2013-02-06 13:32:00,
2013-02-06 07:42:00,26.0,24.0,30.15,West,266,0.0,-999.0,92,-99.99,,,-99.99,,2013-02-06 13:42:00,
2013-02-06 07:52:00,26.0,24.0,30.15,West,266,1.0,-999.0,93,-99.99,,,-99.99,,2013-02-06 13:52:00,
2013-02-06 08:02:00,26.0,24.0,30.14,West,266,0.0,-999.0,93,-99.99,,,-99.99,,2013-02-06 14:02:00,
2013-02-06 08:11:00,27.0,25.0,30.14,West,266,0.0,-999.0,93,-99.99,,,-99.99,,2013-02-06 14:11:00,
2013-02-06 08:21:00,27.0,25.0,30.14,West,266,0.0,-999.0,93,-99.99,,,-99.99,,2013-02-06 14:21:00,
2013-02-06 08:32:00,30.0,28.0,30.15,West,266,0.0,-999.0,94,-99.99,,,-99.99,,2013-02-06 14:32:00,
2013-02-06 08:42:00,31.0,29.0,30.15,West,266,0.0,-999.0,94,-99.99,,,-99.99,,2013-02-06 14:42:00,
2013-02-06 08:52:00,31.0,29.0,30.15,West,266,0.0,-999.0,94,-99.99,,,-99.99,,2013-02-06 14:52:00,
2013-02-06 09:01:00,32.0,30.0,30.16,West,266,0.0,-999.0,93,-99.99,,,-99.99,,2013-02-06 15:01:00,
2013-02-06 09:11:00,33.0,30.0,30.17,SW,214,1.0,-999.0,88,-99.99,,,-99.99,,2013-02-06 15:11:00,
2013-02-06 09:21:00,33.0,30.0,30.17,SW,214,1.0,-999.0,88,-99.99,,,-99.99,,2013-02-06 15:21:00,
2013-02-06 09:31:00,34.0,30.0,30.17,South,191,2.0,-999.0,84,-99.99,,,-99.99,,2013-02-06 15:31:00,
2013-02-06 09:41:00,35.0,30.0,30.17,South,173,2.0,-999.0,81,-99.99,,,-99.99,,2013-02-06 15:41:00,
2013-02-06 09:52:00,35.0,30.0,30.17,South,173,2.0,-999.0,81,-99.99,,,-99.99,,2013-02-06 15:52:00,
2013-02-06 10:01:00,35.0,29.0,30.17,South,170,6.0,-999.0,79,-99.99,,,-99.99,,2013-02-06 16:01:00,
2013-02-06 10:11:00,35.0,29.0,30.17,South,170,6.0,-999.0,79,-99.99,,,-99.99,,2013-02-06 16:11:00,
2013-02-06 10:21:00,36.0,30.0,30.17,ESE,122,4.0,-999.0,78,-99.99,,,-99.99,,2013-02-06 16:21:00,
2013-02-06 10:32:00,37.0,30.0,30.18,SE,137,4.0,-999.0,75,-99.99,,,-99.99,,2013-02-06 16:32:00,
2013-02-06 10:42:00,37.0,30.0,30.18,SE,137,4.0,-999.0,75,-99.99,,,-99.99,,2013-02-06 16:42:00,
2013-02-06 10:51:00,38.0,30.0,30.19,SSE,150,4.0,-999.0,73,-99.99,,,-99.99,,2013-02-06 16:51:00,
2013-02-06 11:02:00,38.0,30.0,30.19,SSE,168,5.0,-999.0,73,-99.99,,,-99.99,,2013-02-06 17:02:00,
2013-02-06 11:11:00,38.0,30.0,30.19,SSE,168,6.0,-999.0,74,-99.99,,,-99.99,,2013-02-06 17:11:00,
2013-02-06 11:21:00,38.0,30.0,30.19,SSE,168,6.0,-999.0,74,-99.99,,,-99.99,,2013-02-06 17:21:00,
2013-02-06 11:32:00,39.0,31.0,30.19,SSE,160,6.0,-999.0,73,-99.99,,,-99.99,,2013-02-06 17:32:00,
2013-02-06 11:42:00,39.0,30.0,30.18,South,172,6.0,-999.0,71,-99.99,,,-99.99,,2013-02-06 17:42:00,
2013-02-06 11:52:00,39.0,30.0,30.18,South,172,6.0,-999.0,71,-99.99,,,-99.99,,2013-02-06 17:52:00,
2013-02-06 12:01:00,40.0,31.0,30.18,South,188,6.0,-999.0,71,-99.99,,,-99.99,,2013-02-06 18:01:00,
2013-02-06 12:11:00,40.0,31.0,30.17,SSE,168,7.0,-999.0,69,-99.99,,,-99.99,,2013-02-06 18:11:00,
2013-02-06 12:23:00,40.0,31.0,30.17,SSE,168,7.0,-999.0,69,-99.99,,,-99.99,,2013-02-06 18:23:00,
2013-02-06 12:32:00,41.0,32.0,30.17,South,172,7.0,-999.0,69,-99.99,,,-99.99,,2013-02-06 18:32:00,
2013-02-06 12:42:00,41.0,32.0,30.17,South,172,7.0,-999.0,69,-99.99,,,-99.99,,2013-02-06 18:42:00,
2013-02-06 12:52:00,42.0,33.0,30.17,SSW,208,7.0,-999.0,69,-99.99,,,-99.99,,2013-02-06 18:52:00,
2013-02-06 13:01:00,42.0,32.0,30.16,SSE,156,7.0,-999.0,68,-99.99,,,-99.99,,2013-02-06 19:01:00,
2013-02-06 13:11:00,42.0,32.0,30.16,SSE,156,7.0,-999.0,68,-99.99,,,-99.99,,2013-02-06 19:11:00,
2013-02-06 13:21:00,42.0,32.0,30.16,South,172,7.0,-999.0,68,-99.99,,,-99.99,,2013-02-06 19:21:00,
2013-02-06 13:32:00,44.0,33.0,30.15,South,172,6.0,-999.0,64,-99.99,,,-99.99,,2013-02-06 19:32:00,
2013-02-06 13:41:00,44.0,33.0,30.15,South,172,6.0,-999.0,64,-99.99,,,-99.99,,2013-02-06 19:41:00,
2013-02-06 13:52:00,44.0,33.0,30.15,South,182,7.0,-999.0,65,-99.99,,,-99.99,,2013-02-06 19:52:00,
2013-02-06 14:01:00,44.0,32.0,30.14,SSE,157,7.0,-999.0,63,-99.99,,,-99.99,,2013-02-06 20:01:00,
2013-02-06 14:11:00,44.0,33.0,30.14,SSE,166,7.0,-999.0,64,-99.99,,,-99.99,,2013-02-06 20:11:00,
2013-02-06 14:21:00,44.0,33.0,30.14,SSE,166,7.0,-999.0,64,-99.99,,,-99.99,,2013-02-06 20:21:00,
2013-02-06 14:32:00,45.0,33.0,30.13,SSW,197,6.0,-999.0,63,-99.99,,,-99.99,,2013-02-06 20:32:00,
2013-02-06 14:42:00,45.0,33.0,30.13,SSW,197,6.0,-999.0,63,-99.99,,,-99.99,,2013-02-06 20:42:00,
2013-02-06 14:52:00,45.0,33.0,30.13,SSE,153,6.0,-999.0,63,-99.99,,,-99.99,,2013-02-06 20:52:00,
2013-02-06 15:02:00,45.0,33.0,30.13,SSE,153,6.0,-999.0,63,-99.99,,,-99.99,,2013-02-06 21:02:00,
2013-02-06 15:11:00,45.0,33.0,30.13,SSE,153,6.0,-999.0,63,-99.99,,,-99.99,,2013-02-06 21:11:00,
2013-02-06 15:21:00,45.0,34.0,30.12,SSE,158,6.0,-999.0,64,-99.99,,,-99.99,,2013-02-06 21:21:00,
2013-02-06 15:32:00,45.0,34.0,30.11,South,172,6.0,-999.0,64,-99.99,,,-99.99,,2013-02-06 21:32:00,
2013-02-06 15:42:00,45.0,34.0,30.11,South,172,6.0,-999.0,64,-99.99,,,-99.99,,2013-02-06 21:42:00,
2013-02-06 15:51:00,46.0,34.0,30.09,SSE,151,5.0,-999.0,63,-99.99,,,-99.99,,2013-02-06 21:51:00,
2013-02-06 16:01:00,46.0,33.0,30.09,SE,140,6.0,-999.0,60,-99.99,,,-99.99,,2013-02-06 22:01:00,
2013-02-06 16:11:00,46.0,33.0,30.09,SE,140,6.0,-999.0,60,-99.99,,,-99.99,,2013-02-06 22:11:00,
2013-02-06 16:21:00,46.0,33.0,30.07,South,171,7.0,-999.0,60,-99.99,,,-99.99,,2013-02-06 22:21:00,
2013-02-06 16:31:00,45.0,32.0,30.08,SE,143,8.0,-999.0,60,-99.99,,,-99.99,,2013-02-06 22:31:00,
2013-02-06 16:42:00,45.0,32.0,30.08,SE,143,8.0,-999.0,60,-99.99,,,-99.99,,2013-02-06 22:42:00,
2013-02-06 16:51:00,45.0,32.0,30.07,SE,131,9.0,-999.0,60,-99.99,,,-99.99,,2013-02-06 22:51:00,
2013-02-06 17:01:00,45.0,34.0,30.06,SE,142,10.0,-999.0,64,-99.99,,,-99.99,,2013-02-06 23:01:00,
2013-02-06 17:11:00,45.0,34.0,30.06,SE,142,10.0,-999.0,64,-99.99,,,-99.99,,2013-02-06 23:11:00,
2013-02-06 17:21:00,44.0,33.0,30.07,South,172,9.0,-999.0,64,-99.99,,,-99.99,,2013-02-06 23:21:00,
2013-02-06 17:32:00,43.0,32.0,30.06,SE,139,9.0,-999.0,64,-99.99,,,-99.99,,2013-02-06 23:32:00,
2013-02-06 17:42:00,43.0,32.0,30.06,SE,139,9.0,-999.0,64,-99.99,,,-99.99,,2013-02-06 23:42:00,
2013-02-06 17:52:00,43.0,33.0,30.07,SSE,150,6.0,-999.0,67,-99.99,,,-99.99,,2013-02-06 23:52:00,
2013-02-06 18:01:00,43.0,33.0,30.07,SSE,150,6.0,-999.0,67,-99.99,,,-99.99,,2013-02-07 00:01:00,
2013-02-06 18:11:00,43.0,33.0,30.07,SSE,150,6.0,-999.0,67,-99.99,,,-99.99,,2013-02-07 00:11:00,
2013-02-06 18:21:00,42.0,33.0,30.07,SSE,150,6.0,-999.0,71,-99.99,,,-99.99,,2013-02-07 00:21:00,
2013-02-06 18:32:00,41.0,32.0,30.06,SE,146,5.0,-999.0,71,-99.99,,,-99.99,,2013-02-07 00:32:00,
2013-02-06 18:42:00,41.0,32.0,30.06,SE,146,5.0,-999.0,71,-99.99,,,-99.99,,2013-02-07 00:42:00,
2013-02-06 18:51:00,41.0,33.0,30.06,SE,143,4.0,-999.0,72,-99.99,,,-99.99,,2013-02-07 00:51:00,
2013-02-06 19:01:00,40.0,32.0,30.06,SSE,154,5.0,-999.0,72,-99.99,,,-99.99,,2013-02-07 01:01:00,
2013-02-06 19:11:00,40.0,32.0,30.06,SSE,154,5.0,-999.0,72,-99.99,,,-99.99,,2013-02-07 01:11:00,
2013-02-06 19:21:00,40.0,32.0,30.07,SSE,151,5.0,-999.0,73,-99.99,,,-99.99,,2013-02-07 01:21:00,
2013-02-06 19:31:00,39.0,31.0,30.07,SSE,154,5.0,-999.0,73,-99.99,,,-99.99,,2013-02-07 01:31:00,
2013-02-06 19:41:00,39.0,31.0,30.07,SSE,154,5.0,-999.0,73,-99.99,,,-99.99,,2013-02-07 01:41:00,
2013-02-06 19:52:00,39.0,31.0,30.06,South,174,7.0,-999.0,74,-99.99,,,-99.99,,2013-02-07 01:52:00,
2013-02-06 20:01:00,38.0,31.0,30.05,SE,133,7.0,-999.0,75,-99.99,,,-99.99,,2013-02-07 02:01:00,
2013-02-06 20:11:00,38.0,31.0,30.05,SE,133,7.0,-999.0,75,-99.99,,,-99.99,,2013-02-07 02:11:00,
2013-02-06 20:21:00,38.0,31.0,30.04,SE,134,8.0,-999.0,76,-99.99,,,-99.99,,2013-02-07 02:21:00,
2013-02-06 20:31:00,38.0,31.0,30.04,SE,141,8.0,-999.0,76,-99.99,,,-99.99,,2013-02-07 02:31:00,
2013-02-06 20:41:00,38.0,31.0,30.04,SE,141,8.0,-999.0,76,-99.99,,,-99.99,,2013-02-07 02:41:00,
2013-02-06 20:51:00,38.0,31.0,30.04,SE,141,8.0,-999.0,76,-99.99,,,-99.99,,2013-02-07 02:51:00,
2013-02-06 21:02:00,37.0,31.0,30.04,ESE,116,8.0,-999.0,78,-99.99,,,-99.99,,2013-02-07 03:02:00,
2013-02-06 21:11:00,37.0,31.0,30.04,SSE,148,10.0,-999.0,79,-99.99,,,-99.99,,2013-02-07 03:11:00,
2013-02-06 21:21:00,37.0,31.0,30.04,SSE,148,10.0,-999.0,79,-99.99,,,-99.99,,2013-02-07 03:21:00,
2013-02-06 21:31:00,37.0,31.0,30.04,SSE,151,9.0,-999.0,79,-99.99,,,-99.99,,2013-02-07 03:31:00,
2013-02-06 21:42:00,37.0,31.0,30.04,SSE,151,9.0,-999.0,79,-99.99,,,-99.99,,2013-02-07 03:42:00,
2013-02-06 21:51:00,37.0,31.0,30.04,South,175,10.0,-999.0,79,-99.99,,,-99.99,,2013-02-07 03:51:00,
2013-02-06 22:01:00,37.0,31.0,30.04,SE,145,10.0,-999.0,78,-99.99,,,-99.99,,2013-02-07 04:01:00,
2013-02-06 22:11:00,37.0,31.0,30.04,SE,145,10.0,-999.0,78,-99.99,,,-99.99,,2013-02-07 04:11:00,
2013-02-06 22:22:00,37.0,31.0,30.04,SSE,156,8.0,-999.0,79,-99.99,,,-99.99,,2013-02-07 04:22:00,
2013-02-06 22:31:00,37.0,31.0,30.03,SSE,158,10.0,-999.0,79,-99.99,,,-99.99,,2013-02-07 04:31:00,
2013-02-06 22:41:00,37.0,31.0,30.03,SSE,158,10.0,-999.0,79,-99.99,,,-99.99,,2013-02-07 04:41:00,
2013-02-06 22:52:00,37.0,31.0,30.03,SSE,155,9.0,-999.0,79,-99.99,,,-99.99,,2013-02-07 04:52:00,
2013-02-06 23:02:00,36.0,30.0,30.03,SSE,151,10.0,-999.0,79,-99.99,,,-99.99,,2013-02-07 05:02:00,
2013-02-06 23:11:00,36.0,30.0,30.03,SSE,151,10.0,-999.0,79,-99.99,,,-99.99,,2013-02-07 05:11:00,
2013-02-06 23:21:00,36.0,30.0,30.03,SE,146,8.0,-999.0,80,-99.99,,,-99.99,,2013-02-07 05:21:00,
2013-02-06 23:32:00,36.0,31.0,30.03,SSE,147,8.0,-999.0,81,-99.99,,,-99.99,,2013-02-07 05:32:00,
2013-02-06 23:42:00,36.0,31.0,30.03,SSE,147,8.0,-999.0,81,-99.99,,,-99.99,,2013-02-07 05:42:00,
2013-02-06 23:52:00,36.0,31.0,30.03,SSE,162,7.0,-999.0,81,-99.99,,,-99.99,,2013-02-07 05:52:00,